Scott AFB, IL

4:03 PM CST on February 27, 2017 (GMT -0600)
Scott Air Force Base-Midamerica

Weather History for KBLV - August, 2013

Change the Weather History Date:

Wednesday, August 28, 2013

  Actual Average Record
Temperature  
Mean Temperature 81 °F -  
Max Temperature 95 °F 86 °F 100 °F (1990)
Min Temperature 68 °F 62 °F 43 °F (1967)
Cooling Degree Days 16    
Growing Degree Days 31 (Base 50)    
Moisture  
Dew Point 70 °F    
Average Humidity 70    
Maximum Humidity 99    
Minimum Humidity 39    
Precipitation  
Precipitation 0.00 in - - ()
Sea Level Pressure  
Sea Level Pressure 30.00 in    
Wind  
Wind Speed 4 mph (SW)    
Max Wind Speed 12 mph    
Max Gust Speed -    
Visibility 10 miles    
Events      
Averages and records for this station are not official NWS values.
T = Trace of Precipitation, MM = Missing Value Source: NWS Daily Summary

Daily Weather History Graph

Daily Weather History Graph

Search for Another Location

Airport or City:

Trip Planner

Search our weather history database for the weather conditions in past years. The results will help you decide how hot, cold, wet, or windy it might be!

Date:

Astronomy

Aug. 28, 2013 Rise Set
Actual Time 6:25 AM CDT 7:34 PM CDT
Civil Twilight 5:57 AM CDT 8:02 PM CDT
Nautical Twilight 5:25 AM CDT 8:34 PM CDT
Astronomical Twilight 4:51 AM CDT 9:08 PM CDT
Moon No Moon Rise 2:10 PM CDT (8/28)
Length of Visible Light 14h 04m
Length of Day
13h 09m
Waning Gibbous, 47% of the Moon is Illuminated
Aug 28
Waning Gibbous
Sep 5
New
Sep 12
First Quarter
Sep 19
Full
Sep 26
Last Quarter

Hourly Weather History & Observations

Time (CDT) Temp. Heat Index Dew Point Humidity Pressure Visibility Wind Dir Wind Speed Gust Speed Precip Events Conditions
12:58 AM 73.2 °F - 70.0 °F 90% 30.00 in 10.0 mi SSW 3.5 mph - N/A   Clear
1:58 AM 73.0 °F - 70.0 °F 90% 29.99 in 10.0 mi SW 3.5 mph - N/A   Clear
2:58 AM 72.0 °F - 69.8 °F 93% 29.99 in 10.0 mi SW 5.8 mph - N/A   Clear
3:58 AM 71.6 °F - 68.9 °F 91% 30.00 in 10.0 mi South 3.5 mph - N/A   Clear
4:58 AM 69.4 °F - 68.7 °F 98% 30.01 in 10.0 mi South 1.2 mph - N/A   Clear
5:58 AM 69.6 °F - 69.1 °F 98% 30.02 in 10.0 mi Calm Calm - N/A   Clear
6:58 AM 68.9 °F - 68.7 °F 99% 30.04 in 10.0 mi South 2.3 mph - N/A   Clear
7:58 AM 73.9 °F - 70.5 °F 89% 30.04 in 10.0 mi SW 4.6 mph - N/A   Clear
8:58 AM 80.8 °F 84.7 °F 71.2 °F 73% 30.04 in 10.0 mi West 5.8 mph - N/A   Clear
9:58 AM 86.2 °F 90.7 °F 69.6 °F 58% 30.04 in 10.0 mi West 8.1 mph - N/A   Clear
10:58 AM 88.7 °F 92.6 °F 68.4 °F 51% 30.04 in 10.0 mi WNW 11.5 mph - N/A   Clear
11:58 AM 91.2 °F 95.5 °F 68.7 °F 47% 30.03 in 10.0 mi Variable 6.9 mph - N/A   Clear
12:58 PM 92.1 °F 96.2 °F 67.8 °F 45% 30.02 in 10.0 mi West 9.2 mph - N/A   Clear
1:58 PM 93.0 °F 96.4 °F 67.1 °F 42% 30.01 in 10.0 mi WSW 8.1 mph - N/A   Clear
2:58 PM 93.7 °F 97.7 °F 67.5 °F 42% 29.99 in 10.0 mi Variable 5.8 mph - N/A   Clear
3:58 PM 94.6 °F 98.9 °F 67.3 °F 41% 29.98 in 10.0 mi West 3.5 mph - N/A   Clear
4:58 PM 94.5 °F 97.5 °F 65.7 °F 39% 29.97 in 10.0 mi Variable 3.5 mph - N/A   Clear
5:53 PM 93.2 °F 97.7 °F 68.0 °F 44% 29.97 in 10.0 mi ENE 3.5 mph - N/A   Light Drizzle
5:58 PM 93.0 °F 97.4 °F 68.0 °F 44% 29.97 in 10.0 mi ENE 2.3 mph - 0.00 in   Light Drizzle
6:00 PM 93.2 °F 97.7 °F 68.0 °F 44% 29.97 in 10.0 mi East 2.3 mph - N/A   Clear
6:58 PM 90.0 °F 96.4 °F 71.1 °F 54% 29.98 in 10.0 mi NE 2.3 mph - 0.00 in   Clear
7:58 PM 82.6 °F 89.1 °F 74.3 °F 76% 29.99 in 10.0 mi Calm Calm - N/A   Clear
8:58 PM 77.2 °F - 74.8 °F 92% 30.00 in 10.0 mi Calm Calm - N/A   Clear
9:58 PM 76.8 °F - 74.5 °F 92% 30.00 in 10.0 mi West 2.3 mph - N/A   Clear
10:58 PM 74.8 °F - 72.5 °F 92% 29.99 in 10.0 mi Calm Calm - N/A   Clear
11:58 PM 76.3 °F - 71.1 °F 84% 29.99 in 10.0 mi Calm Calm - N/A   Clear